EW6950 Weather Reports


Display with metric or nautical units.
time (UTC)temp
F
wind
direction
speed
MPH
gust
MPH
rain 1hr
in
rain 24hr
in
rain mn
in
humidity
%
barometer
mb
20260506134704 52 291 3.0 8.0 0.00 0.35 0.07 91 1006.9
20260506134204 52 328 2.0 7.0 0.00 0.35 0.07 91 1006.9
20260506133707 52 252 2.0 5.0 0.00 0.35 0.07 91 1006.9
20260506133205 52 320 2.0 5.0 0.00 0.35 0.07 91 1006.9
20260506132707 52 323 2.0 4.0 0.00 0.35 0.07 91 1006.9
20260506132202 52 327 2.0 6.0 0.00 0.35 0.07 91 1006.9
20260506131202 51 309 3.0 8.0 0.00 0.36 0.07 91 1006.8
20260506130704 52 256 3.0 8.0 0.00 0.37 0.07 91 1006.7
20260506130201 52 304 3.0 7.0 0.00 0.38 0.07 91 1006.7
20260506125703 52 328 3.0 9.0 0.00 0.39 0.07 91 1006.7
20260506125202 52 318 2.0 9.0 0.00 0.39 0.07 91 1006.6
20260506124704 52 314 2.0 6.0 0.00 0.39 0.07 91 1006.6
20260506124202 52 355 3.0 7.0 0.00 0.39 0.07 91 1006.5
20260506123702 52 309 3.0 7.0 0.00 0.40 0.07 91 1006.5
20260506123201 52 318 3.0 8.0 0.00 0.40 0.07 91 1006.4
20260506122702 52 321 4.0 9.0 0.00 0.40 0.07 90 1006.4
20260506122203 52 340 3.0 9.0 0.00 0.41 0.07 90 1006.3
20260506121201 53 273 2.0 7.0 0.00 0.43 0.07 90 1006.3
20260506120702 52 329 3.0 7.0 0.00 0.44 0.07 90 1006.2
20260506120202 52 351 3.0 7.0 0.00 0.44 0.07 90 1006.2
20260506115702 53 315 3.0 8.0 0.00 0.44 0.07 90 1006.2
20260506115202 53 311 2.0 8.0 0.00 0.44 0.07 90 1006.1
20260506114702 53 286 2.0 5.0 0.00 0.44 0.07 90 1006.1
20260506113702 53 323 2.0 7.0 0.00 0.44 0.07 90 1006.0
20260506113202 53 296 3.0 8.0 0.00 0.44 0.07 90 1006.0
20260506112702 53 286 3.0 8.0 0.00 0.44 0.07 90 1005.9
20260506111702 53 308 2.0 6.0 0.00 0.44 0.07 91 1005.9
20260506111201 53 355 2.0 6.0 0.00 0.44 0.07 91 1005.8
20260506110702 53 333 3.0 7.0 0.00 0.44 0.07 91 1005.8
20260506105702 53 342 3.0 8.0 0.00 0.44 0.07 92 1005.8
20260506105202 52 324 2.0 7.0 0.00 0.44 0.07 92 1005.7
20260506104702 52 335 2.0 7.0 0.00 0.44 0.07 92 1005.7
20260506104202 52 296 3.0 8.0 0.00 0.44 0.07 92 1005.7
20260506103702 52 321 3.0 8.0 0.00 0.44 0.07 92 1005.7
20260506102202 52 321 3.0 6.0 0.00 0.44 0.07 92 1005.6
20260506101702 52 324 2.0 6.0 0.00 0.44 0.07 93 1005.5
20260506101202 52 313 2.0 6.0 0.00 0.44 0.07 93 1005.5
20260506100702 52 325 2.0 7.0 0.00 0.44 0.07 93 1005.5
20260506100202 52 314 3.0 8.0 0.00 0.44 0.07 93 1005.5
20260506095702 52 274 3.0 8.0 0.00 0.44 0.07 93 1005.3
20260506095202 52 325 2.0 7.0 0.00 0.44 0.07 93 1005.3
20260506094702 52 306 2.0 7.0 0.00 0.44 0.07 93 1005.5
20260506094202 52 355 2.0 6.0 0.00 0.44 0.07 93 1005.3
20260506093702 52 320 2.0 7.0 0.00 0.44 0.07 93 1005.2
20260506093202 52 325 3.0 7.0 0.00 0.44 0.07 93 1005.2
20260506092702 52 254 2.0 7.0 0.00 0.44 0.07 93 1005.1
20260506091204 52 279 3.0 7.0 0.00 0.44 0.07 93 1005.1
20260506090702 51 279 3.0 8.0 0.00 0.44 0.07 93 1005.1
20260506090204 51 313 2.0 8.0 0.00 0.44 0.07 93 1005.1
20260506085703 52 277 2.0 6.0 0.00 0.44 0.07 93 1005.0
20260506085205 52 238 2.0 7.0 0.00 0.44 0.07 93 1004.9
20260506084701 52 319 3.0 7.0 0.00 0.44 0.07 93 1004.9
20260506083703 52 323 2.0 7.0 0.00 0.44 0.07 93 1004.7
20260506083204 52 38 2.0 8.0 0.00 0.44 0.07 93 1004.7
20260506082700 52 315 2.0 8.0 0.00 0.44 0.07 93 1004.6
20260506082200 52 231 2.0 5.0 0.00 0.44 0.07 93 1004.7
20260506081658 52 296 3.0 5.0 0.01 0.44 0.07 93 1004.6
20260506081157 52 314 2.0 5.0 0.01 0.44 0.07 93 1004.6
20260506080156 52 319 2.0 7.0 0.01 0.44 0.07 93 1004.6
20260506072653 51 307 2.0 5.0 0.02 0.44 0.07 93 1004.6
20260506072153 51 314 2.0 5.0 0.02 0.44 0.07 93 1004.6
20260506071654 51 312 1.0 5.0 0.02 0.43 0.06 93 1004.6
20260506071157 51 311 2.0 4.0 0.02 0.43 0.06 93 1004.5
20260506070654 51 298 2.0 4.0 0.02 0.43 0.06 94 1004.5
20260506070154 51 331 2.0 5.0 0.02 0.43 0.06 93 1004.5
20260506062148 51 306 2.0 4.0 0.04 0.42 0.05 93 1004.2
20260506061648 51 306 2.0 6.0 0.04 0.42 0.05 93 1004.1
20260506061148 51 325 2.0 6.0 0.03 0.41 0.04 93 1004.1
20260506060648 51 323 1.0 5.0 0.04 0.41 0.04 93 1004.1
20260506050140 52 219 0.0 0.0 0.00 0.37 0.00 93 1003.8
20260506045130 52 219 0.0 1.0 0.00 0.37 0.00 93 1003.8
20260506044131 52 219 0.0 2.0 0.00 0.37 0.00 93 1003.8
20260506043631 52 182 0.0 0.0 0.00 0.37 0.00 93 1003.9
20260506043131 52 182 0.0 0.0 0.00 0.37 0.00 93 1003.8
20260506042631 52 182 0.0 0.0 0.00 0.37 0.00 93 1003.9
20260506042131 52 182 0.0 1.0 0.00 0.37 0.00 93 1003.9
20260506041631 52 182 0.0 2.0 0.00 0.37 0.00 93 1003.9
20260506040631 52 182 0.0 2.0 0.00 0.37 0.00 93 1004.0
20260506040131 52 183 1.0 2.0 0.00 0.37 0.00 93 1004.0
20260506035630 52 183 1.0 2.0 0.00 0.37 0.00 93 1004.0
20260506035131 52 183 1.0 4.0 0.00 0.37 0.00 93 1004.1
20260506034633 52 184 1.0 4.0 0.00 0.37 0.00 93 1004.2
20260506034131 52 176 1.0 3.0 0.00 0.37 0.00 93 1004.2
20260506033634 52 178 1.0 4.0 0.00 0.37 0.00 93 1004.2
20260506033131 52 162 1.0 4.0 0.00 0.37 0.00 93 1004.3
20260506032131 52 181 2.0 6.0 0.00 0.37 0.00 93 1004.2
20260506031634 52 194 2.0 5.0 0.00 0.37 0.00 93 1004.3
20260506031131 52 148 2.0 5.0 0.00 0.37 0.00 93 1004.3
20260506030131 52 171 2.0 5.0 0.00 0.37 0.00 93 1004.3
20260506025631 52 163 2.0 5.0 0.00 0.37 0.00 93 1004.3
20260506024632 52 158 2.0 7.0 0.00 0.37 0.00 93 1004.3
20260506024131 52 192 2.0 5.0 0.00 0.37 0.00 93 1004.3
20260506023633 52 171 2.0 5.0 0.00 0.37 0.00 93 1004.3
20260506023131 52 155 1.0 4.0 0.00 0.37 0.00 93 1004.3
20260506022632 52 189 1.0 4.0 0.00 0.37 0.00 93 1004.3
20260506022128 52 184 2.0 4.0 0.00 0.37 0.00 93 1004.3
20260506021117 52 186 2.0 6.0 0.00 0.37 0.00 93 1004.3
20260506020613 52 171 2.0 6.0 0.00 0.37 0.00 93 1004.3
20260506020107 52 179 2.0 5.0 0.00 0.37 0.00 93 1004.3
20260506015608 52 193 2.0 5.0 0.00 0.37 0.00 93 1004.4
20260506015107 52 178 2.0 6.0 0.00 0.37 0.00 93 1004.4
20260506014607 52 202 2.0 6.0 0.00 0.37 0.00 93 1004.5
20260506014107 52 167 3.0 8.0 0.00 0.37 0.00 93 1004.5
20260506013605 52 137 3.0 8.0 0.00 0.37 0.00 93 1004.6
20260506013105 52 192 3.0 8.0 0.00 0.37 0.00 93 1004.6
20260506012605 52 167 3.0 8.0 0.00 0.37 0.00 93 1004.6
20260506012104 52 173 3.0 6.0 0.00 0.37 0.00 93 1004.6
20260506011608 52 196 3.0 7.0 0.00 0.37 0.00 93 1004.6
20260506011105 53 172 3.0 7.0 0.00 0.37 0.00 93 1004.6
20260506010607 53 186 2.0 6.0 0.00 0.37 0.00 93 1004.7
20260506010104 53 167 2.0 6.0 0.00 0.37 0.00 93 1004.7
20260506005607 53 171 2.0 6.0 0.00 0.37 0.00 93 1004.7
20260506005102 53 157 2.0 5.0 0.00 0.37 0.00 93 1004.8
20260506004604 53 196 2.0 6.0 0.00 0.37 0.00 93 1004.7
20260506004102 53 171 2.0 6.0 0.00 0.37 0.00 93 1004.8
20260506003600 53 182 2.0 6.0 0.00 0.37 0.00 93 1004.9
20260506003055 53 175 2.0 9.0 0.00 0.37 0.00 93 1004.9
20260506002548 53 170 2.0 9.0 0.00 0.37 0.00 93 1004.9
20260506002049 53 187 3.0 9.0 0.00 0.37 0.00 93 1004.8
20260506001047 53 242 2.0 6.0 0.00 0.37 0.00 93 1005.0
20260506000047 53 171 3.0 7.0 0.00 0.37 0.00 93 1005.0
20260505235546 53 202 2.0 7.0 0.00 0.37 0.00 93 1005.1
20260505235047 53 163 2.0 6.0 0.00 0.37 0.00 93 1005.1
20260505234548 53 178 2.0 5.0 0.00 0.37 0.00 93 1005.2
20260505234046 53 186 2.0 4.0 0.00 0.37 0.00 93 1005.2
20260505233047 54 183 1.0 5.0 0.00 0.37 0.00 93 1005.3
20260505232547 54 163 1.0 5.0 0.00 0.37 0.00 93 1005.2
20260505232048 54 163 1.0 5.0 0.00 0.37 0.00 93 1005.3
20260505231547 54 153 1.0 5.0 0.00 0.37 0.00 93 1005.2
20260505231047 54 165 1.0 4.0 0.00 0.37 0.00 93 1005.3
20260505230546 54 168 1.0 4.0 0.00 0.37 0.00 93 1005.3
20260505230046 54 131 0.0 3.0 0.00 0.37 0.00 93 1005.3
20260505225045 54 100 0.0 2.0 0.00 0.37 0.00 93 1005.5
20260505224544 53 100 0.0 2.0 0.00 0.37 0.00 93 1005.5
20260505224045 53 100 0.0 3.0 0.00 0.37 0.00 93 1005.5
20260505223544 53 100 1.0 3.0 0.00 0.37 0.00 93 1005.5
20260505223038 53 88 1.0 3.0 0.00 0.37 0.00 93 1005.5
20260505221539 53 104 1.0 3.0 0.00 0.37 0.00 93 1005.6
20260505221038 53 125 0.0 2.0 0.00 0.37 0.00 93 1005.6
20260505220038 54 126 0.0 1.0 0.00 0.37 0.00 93 1005.8
20260505215535 54 126 0.0 1.0 0.00 0.37 0.37 93 1005.8
20260505215036 54 125 0.0 2.0 0.00 0.37 0.37 93 1005.8
20260505214536 54 125 1.0 2.0 0.03 0.37 0.37 93 1005.8
20260505214036 54 124 0.0 2.0 0.03 0.37 0.37 93 1005.9
20260505213536 54 123 1.0 2.0 0.03 0.37 0.37 93 1005.9
20260505213036 54 116 1.0 2.0 0.03 0.37 0.37 93 1005.9
20260505212536 54 116 1.0 3.0 0.03 0.37 0.37 93 1005.9
20260505212036 54 116 1.0 3.0 0.04 0.37 0.37 93 1005.8
20260505211033 54 117 1.0 2.0 0.06 0.37 0.37 93 1005.9
20260505210534 54 118 0.0 2.0 0.08 0.37 0.37 93 1006.0
20260505210034 54 118 0.0 2.0 0.09 0.37 0.37 93 1006.0
20260505205032 54 118 0.0 2.0 0.13 0.37 0.37 93 1006.0
20260505204533 0 0.0 0.0 0.11 0.34 0.34 1006.0
20260505204032 54 0.0 0.0 0.13 0.34 0.34 93 1006.0
20260505203533 54 122 0.0 1.0 0.13 0.34 0.34 93 1006.0
20260505203024 54 122 0.0 1.0 0.13 0.34 0.34 93 1006.0
20260505202003 54 122 0.0 1.0 0.13 0.33 0.33 93 1006.0
20260505201502 54 122 0.0 1.0 0.13 0.32 0.31 93 1006.0
20260505200956 54 122 0.0 1.0 0.11 0.31 0.30 93 1006.0
20260505200453 54 122 0.0 1.0 0.10 0.29 0.28 93 1006.0
20260505195953 54 122 0.0 1.0 0.09 0.28 0.27 93 1006.0
20260505195453 54 122 0.0 1.0 0.07 0.25 0.25 93 1006.0
20260505194953 55 122 0.0 1.0 0.06 0.24 0.24 92 1006.0
20260505194451 55 122 0.0 1.0 0.05 0.23 0.22 92 1006.0
20260505193952 55 122 0.0 1.0 0.03 0.21 0.21 92 1005.9
20260505193451 55 122 0.0 1.0 0.03 0.20 0.20 93 1005.9
20260505192952 55 122 0.0 1.0 0.03 0.20 0.20 93 1006.0
20260505192451 55 122 0.0 1.0 0.03 0.20 0.20 93 1005.9
20260505191949 55 122 0.0 1.0 0.03 0.20 0.20 92 1005.9
20260505191447 55 122 0.0 1.0 0.03 0.20 0.20 92 1005.8
20260505190947 55 122 0.0 2.0 0.03 0.20 0.20 92 1005.8
20260505190407 55 122 0.0 2.0 0.03 0.19 0.19 92 1005.8
20260505185913 55 122 0.0 2.0 0.03 0.19 0.19 92 1005.7
20260505185406 55 123 0.0 2.0 0.02 0.18 0.18 92 1005.7
20260505184905 55 123 1.0 2.0 0.03 0.18 0.18 92 1005.7
20260505183903 55 123 0.0 1.0 0.03 0.18 0.18 92 1005.8
20260505183404 55 123 0.0 2.0 0.02 0.17 0.17 92 1005.8
20260505182904 55 123 1.0 2.0 0.02 0.17 0.17 92 1005.8
20260505182405 55 123 1.0 2.0 0.02 0.17 0.17 92 1005.8
20260505181903 55 123 1.0 2.0 0.02 0.17 0.17 92 1005.8
20260505181413 55 123 1.0 2.0 0.02 0.17 0.17 92 1005.9
20260505180904 55 123 0.0 1.0 0.02 0.17 0.17 92 1005.9
20260505180404 55 123 0.0 1.0 0.01 0.16 0.16 92 1005.9
20260505175417 55 123 0.0 1.0 0.01 0.16 0.16 91 1005.9
20260505174904 55 123 0.0 1.0 0.00 0.15 0.15 91 1006.0
20260505174404 55 123 0.0 1.0 0.00 0.16 0.15 91 1006.0
20260505172903 55 123 0.0 1.0 0.00 0.16 0.15 91 1006.0
20260505171905 56 123 0.0 1.0 0.00 0.16 0.15 91 1006.1
20260505171404 56 123 0.0 1.0 0.00 0.16 0.15 91 1006.1
20260505170904 56 123 0.0 1.0 0.01 0.16 0.15 91 1006.1
20260505170403 56 123 0.0 1.0 0.01 0.16 0.15 91 1006.1
20260505165905 56 123 0.0 1.0 0.01 0.16 0.15 91 1006.0
20260505164905 56 123 0.0 2.0 0.01 0.16 0.15 91 1006.1
20260505164402 55 123 0.0 2.0 0.01 0.16 0.15 91 1006.1
20260505163905 55 123 0.0 2.0 0.02 0.16 0.15 91 1006.1
20260505163402 55 123 1.0 2.0 0.02 0.16 0.15 91 1006.1
20260505161902 56 121 0.0 2.0 0.02 0.17 0.15 92 1006.2
20260505161402 56 90 0.0 1.0 0.03 0.17 0.15 92 1006.2
20260505160903 56 90 0.0 2.0 0.02 0.16 0.14 92 1006.2
20260505160402 56 90 1.0 2.0 0.02 0.16 0.14 92 1006.2
20260505152901 56 181 1.0 2.0 0.02 0.14 0.13 91 1006.4
20260505152402 56 181 1.0 2.0 0.02 0.14 0.13 91 1006.5
20260505151902 56 181 1.0 2.0 0.02 0.14 0.13 91 1006.5
20260505150902 56 180 1.0 2.0 0.02 0.13 0.12 91 1006.5
20260505140338 56 154 2.0 5.0 0.03 0.13 0.10 91 1006.9